Weather History for KPEA - November, 2012

Change the Weather History Date:

Friday, November 23, 2012

  Actual Average (KOXV) Record (KOXV)
Temperature  
Mean Temperature 30 °F -  
Max Temperature 39 °F 44 °F 67 °F (1966)
Min Temperature 20 °F 27 °F 4 °F (1950)
Degree Days  
Heating Degree Days 35    
Moisture  
Dew Point 16 °F    
Average Humidity 57    
Maximum Humidity 74    
Minimum Humidity 44    
Precipitation  
Precipitation 0.00 in - - ()
Sea Level Pressure  
Sea Level Pressure 30.31 in    
Wind  
Wind Speed 20 mph (NW)    
Max Wind Speed 31 mph    
Max Gust Speed 41 mph    
Visibility 10 miles    
Events      
Averages and records for this station are not official NWS values.
T = Trace of Precipitation, MM = Missing Value Source: NWS Daily Summary

Daily Weather History Graph

Daily Weather History Graph

Search for Another Location

Airport or City:

Trip Planner

Search our weather history database for the weather conditions in past years. The results will help you decide how hot, cold, wet, or windy it might be!

Date:

Astronomy

Nov. 23, 2012 Rise Set
Actual Time 7:10 AM CST 4:46 PM CST
Civil Twilight 6:39 AM CST 5:16 PM CST
Nautical Twilight 6:05 AM CST 5:50 PM CST
Astronomical Twilight 5:32 AM CST 6:23 PM CST
Moon 2:03 PM CST (11/23) 2:27 AM CST (11/23)
Length of Visible Light 10h 36m
Length of Day
9h 35m
Waxing Gibbous, 80% of the Moon is Illuminated
Nov 23
Waxing Gibbous
Nov 28
Full
Dec 6
Last Quarter
Dec 13
New
Dec 19
First Quarter

Hourly Weather History & Observations

Time (CST) Temp. Windchill Dew Point Humidity Pressure Visibility Wind Dir Wind Speed Gust Speed Precip Events Conditions
12:15 AM 39.7 °F 29.2 °F 25.3 °F 56% 30.14 in 10.0 mi WNW 24.2 mph 29.9 mph N/A   Clear
12:35 AM 39.0 °F 30.6 °F 25.2 °F 58% 30.14 in 10.0 mi WNW 15.0 mph 26.5 mph N/A   Clear
12:55 AM 38.3 °F 30.1 °F 24.4 °F 57% 30.15 in 10.0 mi WNW 13.8 mph 25.3 mph N/A   Scattered Clouds
1:15 AM 38.5 °F 28.6 °F 22.6 °F 53% 30.15 in 10.0 mi WNW 19.6 mph 32.2 mph N/A   Overcast
1:35 AM 37.8 °F 27.7 °F 22.1 °F 53% 30.14 in 10.0 mi WNW 19.6 mph 26.5 mph N/A   Overcast
1:55 AM 37.6 °F 28.4 °F 21.9 °F 53% 30.15 in 10.0 mi WNW 16.1 mph 21.9 mph N/A   Overcast
2:15 AM 37.8 °F 26.6 °F 21.6 °F 52% 30.15 in 10.0 mi WNW 24.2 mph 33.4 mph N/A   Overcast
2:35 AM 37.4 °F 26.9 °F 21.6 °F 53% 30.16 in 10.0 mi NW 20.7 mph 31.1 mph N/A   Overcast
2:55 AM 36.9 °F 24.0 °F 22.1 °F 55% 30.16 in 10.0 mi NW 31.1 mph 41.4 mph N/A   Overcast
3:15 AM 35.6 °F 23.4 °F 20.3 °F 54% 30.18 in 10.0 mi WNW 25.3 mph 36.8 mph N/A   Overcast
3:35 AM 35.6 °F 24.5 °F 20.1 °F 53% 30.18 in 10.0 mi WNW 20.7 mph 31.1 mph N/A   Mostly Cloudy
3:55 AM 34.0 °F 20.8 °F 18.1 °F 52% 30.18 in 10.0 mi WNW 27.6 mph 40.3 mph N/A   Scattered Clouds
4:15 AM 32.7 °F 18.8 °F 18.5 °F 56% 30.20 in 10.0 mi NW 28.8 mph 36.8 mph N/A   Mostly Cloudy
4:35 AM 32.0 °F 17.9 °F 19.2 °F 59% 30.20 in 10.0 mi WNW 28.8 mph 36.8 mph N/A   Overcast
4:55 AM 32.0 °F 18.9 °F 19.2 °F 59% 30.22 in 10.0 mi WNW 24.2 mph 36.8 mph N/A   Overcast
5:15 AM 31.6 °F 19.0 °F 18.3 °F 58% 30.22 in 10.0 mi NW 21.9 mph 36.8 mph N/A   Overcast
5:35 AM 31.1 °F 17.7 °F 17.4 °F 57% 30.23 in 10.0 mi NW 24.2 mph 36.8 mph N/A   Overcast
5:55 AM 30.0 °F 16.6 °F 17.6 °F 60% 30.24 in 10.0 mi NW 23.0 mph 35.7 mph N/A   Scattered Clouds
6:15 AM 28.8 °F 14.3 °F 16.2 °F 59% 30.25 in 10.0 mi WNW 25.3 mph 32.2 mph N/A   Clear
6:35 AM 27.5 °F 12.9 °F 16.0 °F 62% 30.26 in 10.0 mi WNW 24.2 mph 35.7 mph N/A   Clear
6:55 AM 27.0 °F 13.2 °F 15.4 °F 62% 30.27 in 10.0 mi WNW 20.7 mph 32.2 mph N/A   Clear
7:15 AM 26.6 °F 12.0 °F 15.6 °F 63% 30.27 in 10.0 mi WNW 23.0 mph 32.2 mph N/A   Clear
7:35 AM 26.6 °F 11.4 °F 15.6 °F 63% 30.28 in 10.0 mi WNW 25.3 mph 34.5 mph N/A   Clear
7:55 AM 27.1 °F 11.8 °F 15.4 °F 61% 30.28 in 10.0 mi WNW 26.5 mph 38.0 mph N/A   Clear
8:15 AM 27.5 °F 15.4 °F 15.8 °F 61% 30.30 in 10.0 mi WNW 16.1 mph 29.9 mph N/A   Clear
8:35 AM 27.9 °F 13.7 °F 15.6 °F 60% 30.31 in 10.0 mi NW 23.0 mph 34.5 mph N/A   Clear
8:55 AM 28.2 °F 13.0 °F 15.3 °F 58% 30.31 in 10.0 mi WNW 27.6 mph 38.0 mph N/A   Scattered Clouds
9:15 AM 28.0 °F 13.0 °F 14.7 °F 57% 30.32 in 10.0 mi NW 26.5 mph 35.7 mph N/A   Mostly Cloudy
9:35 AM 28.6 °F 14.1 °F 15.1 °F 57% 30.33 in 10.0 mi WNW 25.3 mph 35.7 mph N/A   Overcast
9:55 AM 29.1 °F 15.1 °F 15.1 °F 56% 30.34 in 10.0 mi NW 24.2 mph 36.8 mph N/A   Overcast
10:15 AM 29.3 °F 14.2 °F 15.1 °F 55% 30.35 in 10.0 mi WNW 28.8 mph 36.8 mph N/A   Overcast
10:35 AM 29.1 °F 14.5 °F 14.7 °F 55% 30.36 in 10.0 mi WNW 26.5 mph 36.8 mph N/A   Overcast
10:55 AM 31.1 °F 17.2 °F 15.4 °F 52% 30.36 in 10.0 mi WNW 26.5 mph 33.4 mph N/A   Overcast
11:15 AM 30.7 °F 17.5 °F 14.9 °F 52% 30.35 in 10.0 mi WNW 23.0 mph 32.2 mph N/A   Overcast
11:35 AM 31.1 °F 16.4 °F 15.3 °F 52% 30.35 in 10.0 mi WNW 29.9 mph 36.8 mph N/A   Mostly Cloudy
11:55 AM 30.4 °F 16.7 °F 14.4 °F 51% 30.35 in 10.0 mi WNW 24.2 mph 35.7 mph N/A   Scattered Clouds
12:15 PM 30.4 °F 17.3 °F 14.0 °F 51% 30.35 in 10.0 mi WNW 21.9 mph 34.5 mph N/A   Scattered Clouds
12:35 PM 31.1 °F 18.0 °F 14.0 °F 49% 30.36 in 10.0 mi WNW 23.0 mph 32.2 mph N/A   Scattered Clouds
12:55 PM 31.3 °F 18.2 °F 13.6 °F 48% 30.36 in 10.0 mi WNW 23.0 mph 33.4 mph N/A   Scattered Clouds
1:15 PM 32.2 °F 19.1 °F 14.0 °F 47% 30.35 in 10.0 mi NW 24.2 mph 31.1 mph N/A   Clear
1:35 PM 32.2 °F 19.7 °F 14.0 °F 47% 30.35 in 10.0 mi NW 21.9 mph 32.2 mph N/A   Clear
1:55 PM 32.7 °F 19.9 °F 14.0 °F 46% 30.34 in 10.0 mi NW 24.2 mph 31.1 mph N/A   Clear
2:15 PM 32.9 °F 21.3 °F 13.8 °F 45% 30.35 in 10.0 mi NW 19.6 mph 31.1 mph N/A   Clear
2:35 PM 33.8 °F 22.5 °F 14.4 °F 45% 30.35 in 10.0 mi NW 19.6 mph 25.3 mph N/A   Clear
2:55 PM 33.4 °F 21.1 °F 13.8 °F 45% 30.35 in 10.0 mi NW 23.0 mph 33.4 mph N/A   Clear
3:15 PM 33.3 °F 20.9 °F 13.6 °F 44% 30.36 in 10.0 mi WNW 23.0 mph 31.1 mph N/A   Clear
3:35 PM 33.3 °F 21.8 °F 14.0 °F 45% 30.36 in 10.0 mi WNW 19.6 mph 26.5 mph N/A   Clear
3:55 PM 32.5 °F 20.8 °F 13.3 °F 45% 30.37 in 10.0 mi NW 19.6 mph 28.8 mph N/A   Clear
4:15 PM 32.0 °F 20.8 °F 13.5 °F 46% 30.37 in 10.0 mi NW 17.3 mph 29.9 mph N/A   Clear
4:35 PM 31.5 °F 20.1 °F 13.3 °F 47% 30.37 in 10.0 mi NW 17.3 mph 24.2 mph N/A   Clear
4:55 PM 30.4 °F 20.5 °F 13.5 °F 50% 30.37 in 10.0 mi NW 12.7 mph 19.6 mph N/A   Clear
5:15 PM 29.7 °F 19.6 °F 13.8 °F 52% 30.37 in 10.0 mi NW 12.7 mph - N/A   Clear
5:35 PM 28.9 °F 17.7 °F 13.8 °F 53% 30.37 in 10.0 mi WNW 15.0 mph 18.4 mph N/A   Clear
5:55 PM 28.4 °F 18.0 °F 13.8 °F 54% 30.38 in 10.0 mi NW 12.7 mph - N/A   Clear
6:15 PM 27.9 °F 17.8 °F 14.0 °F 56% 30.38 in 10.0 mi NW 11.5 mph 17.3 mph N/A   Clear
6:35 PM 27.3 °F 18.4 °F 13.8 °F 57% 30.39 in 10.0 mi NW 9.2 mph - N/A   Clear
6:55 PM 25.7 °F 16.4 °F 14.0 °F 61% 30.39 in 10.0 mi WNW 9.2 mph - N/A   Clear
7:15 PM 25.2 °F 16.5 °F 13.8 °F 62% 30.38 in 10.0 mi NW 8.1 mph - N/A   Clear
7:35 PM 24.6 °F 15.8 °F 14.0 °F 64% 30.39 in 10.0 mi NW 8.1 mph - N/A   Clear
7:55 PM 24.6 °F 14.4 °F 14.0 °F 64% 30.39 in 10.0 mi NW 10.4 mph - N/A   Clear
8:15 PM 24.6 °F 14.4 °F 14.0 °F 64% 30.39 in 10.0 mi NW 10.4 mph - N/A   Clear
8:35 PM 24.6 °F 14.4 °F 14.0 °F 64% 30.39 in 10.0 mi NW 10.4 mph - N/A   Clear
8:55 PM 23.9 °F 13.5 °F 13.8 °F 65% 30.38 in 10.0 mi NW 10.4 mph - N/A   Clear
9:15 PM 23.5 °F 13.7 °F 13.8 °F 66% 30.38 in 10.0 mi NW 9.2 mph - N/A   Clear
9:35 PM 23.4 °F 12.8 °F 13.5 °F 66% 30.38 in 10.0 mi NW 10.4 mph - N/A   Clear
9:55 PM 23.4 °F 13.5 °F 13.3 °F 65% 30.39 in 10.0 mi NW 9.2 mph - N/A   Clear
10:15 PM 22.8 °F 13.6 °F 13.1 °F 66% 30.38 in 10.0 mi NW 8.1 mph - N/A   Clear
10:35 PM 21.9 °F 12.5 °F 13.1 °F 69% 30.39 in 10.0 mi WNW 8.1 mph - N/A   Clear
10:55 PM 21.2 °F 10.9 °F 13.1 °F 71% 30.38 in 10.0 mi WNW 9.2 mph - N/A   Clear
11:15 PM 21.2 °F 11.7 °F 13.1 °F 71% 30.38 in 10.0 mi NW 8.1 mph - N/A   Clear
11:35 PM 21.0 °F 11.4 °F 13.1 °F 71% 30.38 in 10.0 mi NW 8.1 mph - N/A   Clear
11:55 PM 20.1 °F 10.3 °F 12.9 °F 74% 30.37 in 10.0 mi NW 8.1 mph - N/A   Clear